Location: Central Falls
(41.8900°N, 71.3929°W)
Time: 03:45:58
(UTC+00:00)

Tiros 1 - Pass Details

Date: 06 December 2023
Orbit: 625 x 658 km, 48.4° (Epoch: 01 March)

Event Time Altitude Azimuth Distance (km) Brightness Sun altitude
Rises 14:57:21 0° 294° (WNW) 2,985 10.1 21.6°
Reaches altitude 10° 14:59:51 10° 285° (WNW) 2,067 9.5 21.8°
Maximum altitude 15:04:11 36° 220° (SW) 1,041 8.8 22.1°
Drops below altitude 10° 15:08:29 10° 154° (SSE) 2,041 11.9 22.5°
Sets 15:10:56 0° 146° (SE) 2,942 11.9 22.6°
